Location: Jackson Park
(37.2862°N, 79.9123°W)
Time: 20:47:07
(UTC+00:00)

Vanguard 2 - Pass Details

Date: 15 May 2026
Orbit: 553 x 2894 km, 32.9° (Epoch: 6 June)

Event Time Altitude Azimuth Distance (km) Brightness Sun altitude
Rises 03:56:57 0° 193° (SSW) 5,781 - -30.8°
Reaches altitude 10° 04:01:51 10° 179° (S) 5,109 - -31.2°
Maximum altitude 04:12:33 22° 136° (SE) 4,612 - -31.9°
Exits shadow 04:18:18 19° 112° (ESE) 4,972 11.3 -32.2°
Drops below altitude 10° 04:24:16 10° 93° (E) 5,693 11.8 -32.5°
Sets 04:30:02 0° 81° (E) 6,598 12.3 -32.8°
